Regional Weather Roundup
Issued by NWS

Home | Current Version | Previous Version | Graphics & Text | Print | Product List | Glossary On
Versions: 1 2 3 4 5 6 7 8 9 10 11 12 13 14 15 16 17 18 19 20 21 22 23 24 25 26 27 28 29 30 31 32 33 34 35 36 37 38 39 40 41 42 43 44 45 46 47 48 49 50
000
ASUS43 KBIS 230820
RWRND

NORTH DAKOTA REGIONAL WEATHER ROUNDUP
NATIONAL WEATHER SERVICE BISMARCK ND
300 AM CDT SAT MAY 23 2015

NOTE: "FAIR" INDICATES FEW OR NO CLOUDS BELOW 12,000 FEET WITH NO
SIGNIFICANT WEATHER AND/OR OBSTRUCTIONS TO VISIBILITY.


NDZ001>003-009>011-017-230900-
NORTHWEST NORTH DAKOTA

CITY           SKY/WX    TMP DP  RH WIND       PRES   REMARKS
WILLISTON      PTCLDY    50  38  63 SW3       30.10R
MINOT          CLOUDY    59  39  47 SW9       30.10S
MINOT AFB      CLOUDY    56  43  62 SW7       30.09S
$$

NDZ018>021-031>035-040>046-230900-
SOUTHWEST NORTH DAKOTA

CITY           SKY/WX    TMP DP  RH WIND       PRES   REMARKS
BISMARCK       CLEAR     46  40  79 SE5       30.15R
DICKINSON      CLEAR     42  36  79 S7        30.08F
GARRISON         N/A     49  39  68 CALM      30.12S
HETTINGER ARPT PTCLDY    43  39  86 E6        30.10S
$$

NDZ004>008-012>016-024-026-027-054-230900-
NORTHEAST NORTH DAKOTA

CITY           SKY/WX    TMP DP  RH WIND       PRES   REMARKS
GRAND FORKS    CLEAR     51  41  68 SE6       30.13R
GRND FRKS AFB  CLEAR     49  40  73 SW5       30.13S
DEVILS LAKE    CLEAR     55  39  54 CALM      30.12S
$$

NDZ022-023-025-028>030-036>039-047>053-230900-
SOUTHEAST NORTH DAKOTA

CITY           SKY/WX    TMP DP  RH WIND       PRES   REMARKS
FARGO          CLEAR     54  40  59 S8        30.15R
JAMESTOWN      PTCLDY    53  42  66 SW9       30.13R
$$



USA.gov is the U.S. government's official web portal to all federal, state and local government web resources and services.